Theta_e
290 290 288 287 286 287 286 286 286 286 286 287 287 286 286 286 286 287 287 298 303 307 312 313 315 316 317 318 319 318 318 316 315 315 316 318 320 322 323 324 325 326 329
289 289 287 287 286 286 286 286 285 285 285 286 286 286 286 286 286 286 287 289 301 305 310 313 314 316 316 315 313 313 313 313 314 313 313 313 313 315 316 318 319 321 322
289 288 287 286 285 285 286 285 284 284 284 285 284 285 286 285 285 286 287 287 290 302 307 310 310 311 315 312 311 309 310 310 311 310 310 310 311 312 313 314 315 316 317
289 287 287 286 285 285 284 284 283 283 283 283 282 283 283 285 285 286 286 287 289 291 301 306 304 305 307 308 307 307 307 309 310 308 308 309 310 310 311 312 313 314 316
289 288 287 285 285 284 284 284 282 282 281 282 283 282 282 283 284 286 284 286 289 289 290 297 296 298 300 302 303 304 307 307 307 306 307 307 307 309 310 311 311 312 313
289 287 286 285 285 283 283 283 282 282 281 281 283 282 282 283 283 282 283 285 286 288 286 286 286 287 294 297 299 302 303 304 303 304 305 306 306 308 308 309 309 310 311
288 287 286 285 284 283 283 282 281 281 281 280 280 280 281 282 282 282 282 283 284 284 284 284 284 285 285 293 296 299 300 301 302 302 303 304 305 305 306 307 308 309 310
288 287 286 284 284 282 282 281 282 280 281 279 279 279 278 280 281 282 282 282 281 282 283 284 283 284 284 284 289 294 297 298 299 301 301 302 303 303 304 305 306 307 308
288 287 285 285 284 283 282 281 281 281 280 279 279 280 277 278 278 280 280 281 281 281 281 282 283 283 283 283 286 288 292 294 296 298 299 300 300 301 302 303 304 305 306
287 286 285 285 284 283 281 281 281 280 280 279 279 281 279 278 277 276 279 279 280 280 280 281 281 282 283 283 286 288 290 292 293 295 296 297 298 299 300 302 302 303 304
287 285 285 284 283 283 282 281 280 280 280 279 279 279 278 278 278 277 276 277 279 279 280 280 281 281 282 282 282 285 289 290 291 292 293 294 295 296 298 300 301 302 302
286 285 285 284 283 283 281 281 281 280 280 280 280 280 279 278 277 277 276 276 276 278 279 280 279 280 281 281 284 286 287 288 289 290 291 291 292 294 296 297 298 299 300
285 284 284 283 282 282 282 281 281 280 280 279 279 279 280 279 280 278 277 276 276 277 278 279 279 280 282 281 281 285 285 286 287 288 289 290 291 292 293 294 296 297 297
287 286 284 284 283 282 282 281 281 281 280 280 279 279 279 279 280 280 278 277 274 275 276 276 278 279 280 281 281 283 280 284 285 287 288 289 290 290 291 292 294 295 295
286 284 284 283 282 282 281 281 281 280 280 280 279 279 278 278 279 279 279 278 276 271 273 275 276 279 279 279 280 279 278 281 284 286 286 287 288 289 290 291 292 293 295
285 283 283 283 282 281 281 281 280 280 280 279 279 278 278 278 278 278 279 278 277 274 271 275 275 276 278 278 279 278 278 281 282 283 285 286 287 288 289 290 291 292 293
285 283 284 283 282 281 281 281 280 279 279 278 278 278 277 278 277 276 277 277 276 275 271 274 275 276 275 276 277 277 278 277 278 282 284 285 286 287 288 289 289 290 291
285 284 284 283 282 282 281 281 280 279 278 277 277 277 276 277 276 276 276 275 275 275 273 271 274 274 274 275 276 275 277 278 278 280 283 285 286 286 286 287 287 288 288
284 284 283 282 282 282 281 281 280 279 278 278 277 277 276 276 275 275 274 274 274 275 273 271 271 274 274 275 275 276 276 277 278 281 282 283 284 284 285 285 286 286 286
283 283 283 282 282 281 281 280 279 278 278 277 277 277 276 275 275 274 274 273 273 272 273 271 272 272 273 275 276 274 274 276 276 278 279 280 281 282 283 284 284 283 283
283 283 282 282 281 280 280 279 279 278 277 276 276 276 275 275 278 276 274 273 273 271 272 271 271 272 273 274 273 275 273 274 275 276 276 277 278 278 279 281 281 282 283
282 282 281 281 279 280 284 284 280 278 277 275 274 275 275 274 277 279 279 278 276 270 267 268 271 272 273 274 275 273 273 272 271 275 275 274 276 275 276 277 280 282 283
282 281 281 280 279 280 284 285 284 278 276 276 275 274 274 274 274 277 280 281 281 281 279 274 269 273 273 274 274 274 274 274 274 275 273 270 273 272 275 276 280 281 281
280 280 280 280 279 279 284 286 284 278 277 276 275 274 274 274 275 275 275 275 275 275 276 276 275 274 275 276 277 277 275 273 272 273 273 268 273 271 273 274 278 280 281
279 280 280 279 279 278 284 286 283 277 276 275 275 275 275 275 277 279 274 272 273 274 278 280 280 280 280 280 279 273 268 267 266 269 272 270 270 271 272 272 274 278 279
279 279 278 279 278 277 283 286 282 276 274 274 275 276 277 275 279 280 274 272 272 273 274 273 274 275 275 273 275 273 270 265 266 265 273 270 270 270 268 272 273 274 274
Wind_Speed
5 5 4 4 4 4 4 4 4 3 4 3 3 4 4 4 4 2 1 8 8 8 10 9 10 10 12 12 15 15 16 15 14 15 15 17 16 16 17 16 16 19 19
5 5 5 5 4 4 3 4 3 3 3 2 3 3 4 3 3 3 2 3 9 9 8 12 11 12 10 17 15 15 15 15 16 18 18 16 15 16 16 16 17 18 18
7 7 5 5 4 4 6 4 3 2 2 1 3 4 3 4 3 4 4 3 4 9 10 12 10 11 13 13 14 15 15 15 13 17 17 15 15 15 15 15 15 16 17
9 7 6 5 5 4 4 4 3 2 2 2 1 3 3 3 4 4 4 4 4 4 8 16 14 11 10 12 13 14 14 13 14 16 16 15 15 16 15 16 16 16 18
9 8 7 6 6 5 4 4 2 2 2 1 2 3 3 3 4 3 6 5 5 5 4 12 13 13 13 13 14 13 13 13 15 15 13 14 15 15 16 16 17 17 18
10 8 6 7 6 5 5 3 3 2 2 1 2 4 4 3 3 4 5 4 5 6 5 6 4 5 13 12 12 12 12 12 12 12 13 14 15 15 16 17 18 18 17
11 10 7 7 6 7 6 6 4 4 1 1 3 3 4 3 5 4 3 4 5 5 5 4 3 3 4 12 12 11 11 12 12 12 12 14 14 16 18 18 17 18 18
13 11 11 9 9 6 6 6 5 3 2 2 4 2 2 2 1 3 2 3 4 3 4 4 3 4 3 3 6 11 12 13 13 13 14 13 15 16 17 19 20 19 19
13 14 13 11 11 8 8 7 6 7 5 1 1 4 3 4 1 1 1 1 2 3 2 4 3 4 3 2 4 6 10 12 13 14 14 16 17 19 20 17 19 19 19
15 14 14 12 12 8 8 8 6 4 5 5 2 2 4 3 4 1 1 2 2 3 1 3 3 4 3 3 5 6 8 13 14 14 15 17 19 19 19 21 20 21 21
14 15 15 14 12 9 9 11 8 7 4 5 4 4 2 3 3 3 3 2 2 2 2 3 3 3 2 1 2 4 9 13 13 16 18 19 18 20 21 22 22 22 23
10 12 13 12 12 12 11 9 9 8 7 4 4 4 5 5 4 4 2 2 3 3 2 4 3 2 2 1 1 4 7 13 16 18 18 18 19 20 21 22 22 23 24
10 14 15 13 11 11 11 10 10 8 9 6 8 5 4 4 4 3 3 2 2 2 3 2 2 2 1 2 2 3 9 14 17 18 19 19 20 21 21 22 23 24 24
13 15 16 14 14 14 12 11 8 8 8 7 8 6 4 5 4 3 4 5 2 2 3 4 1 1 3 3 1 9 4 13 16 17 19 20 20 21 22 22 23 24 25
10 12 15 14 14 13 14 13 9 11 10 9 8 7 4 4 4 4 3 4 5 3 3 2 3 4 3 3 3 4 4 11 18 19 20 19 20 22 23 23 23 24 25
14 15 16 15 14 14 14 14 10 10 11 8 7 9 5 4 5 4 4 3 3 3 3 3 3 1 2 4 8 7 9 17 17 19 20 21 21 22 23 24 25 26 27
15 17 19 18 18 17 16 15 14 14 14 11 9 10 9 8 6 5 5 4 4 4 4 2 3 1 5 6 8 7 8 10 10 20 22 23 24 25 26 26 27 28 28
12 13 15 17 17 18 18 18 17 15 16 15 13 12 11 8 8 7 6 7 6 6 4 3 3 3 5 6 9 10 8 8 8 14 20 22 25 27 27 27 29 30 30
14 14 15 17 18 19 19 19 18 16 16 15 15 14 12 12 10 7 7 6 5 5 5 4 3 3 5 6 7 7 6 6 5 14 19 22 23 25 26 28 30 31 31
14 15 15 15 16 16 17 17 17 16 15 13 13 13 13 14 12 11 9 8 7 6 5 4 4 6 5 5 5 5 6 3 7 8 14 17 20 21 25 27 29 30 31
13 14 14 13 13 14 13 17 17 16 16 14 13 13 13 13 19 15 9 9 9 6 4 4 5 4 4 4 6 6 8 8 8 8 8 7 10 11 12 19 22 27 29
14 14 15 17 16 13 26 30 22 16 16 16 15 13 11 14 16 20 19 17 12 8 6 4 4 5 5 5 5 7 8 9 7 1 11 12 12 12 13 11 23 30 32
12 14 15 16 19 17 29 32 31 16 17 16 16 14 11 9 13 12 19 19 18 18 15 8 6 5 5 6 8 9 9 9 10 10 14 15 11 13 12 13 28 32 32
13 12 13 14 15 15 29 30 30 16 16 17 17 17 16 16 15 14 11 9 8 7 7 5 4 6 7 8 8 8 9 9 9 7 7 12 10 14 13 11 30 33 33
10 12 10 13 15 12 28 29 27 14 14 14 13 15 15 15 22 23 12 11 9 9 12 14 13 13 12 13 11 6 6 7 8 5 5 9 7 15 15 15 14 27 31
8 8 9 11 12 11 26 29 24 10 12 11 11 12 21 16 26 26 13 12 11 8 7 4 4 6 4 6 12 6 2 5 6 7 3 4 11 11 12 9 9 9 15
Wind_Direction
168 151 157 154 149 151 161 146 143 131 107 105 95 89 68 54 43 37 33 44 47 50 59 62 69 63 63 63 56 45 42 39 37 36 34 31 26 22 18 14 12 7 6
160 162 163 167 159 166 148 147 150 142 123 122 92 74 77 69 64 63 48 47 60 55 65 69 65 66 72 59 48 41 35 32 41 34 25 23 23 17 11 9 3 2 1
171 165 163 164 169 163 154 144 140 126 106 74 67 48 59 57 72 76 71 70 57 62 73 73 76 67 71 56 39 30 27 23 31 27 16 12 16 13 8 10 4 356 354
172 164 164 175 164 159 158 150 145 107 86 63 54 60 58 84 91 83 76 83 79 63 63 76 64 60 54 42 21 13 15 22 24 19 11 8 6 5 2 5 2 356 358
174 170 173 166 160 156 168 160 132 157 149 35 25 59 64 84 98 89 64 75 83 88 75 70 58 46 36 21 12 9 19 16 21 9 12 8 2 2 4 1 360 355 352
175 171 166 163 159 160 165 166 144 94 117 93 59 65 43 68 71 63 65 86 87 87 76 62 47 27 22 17 15 15 16 23 19 14 11 3 4 4 1 354 349 347 344
177 176 172 163 165 173 177 168 133 138 107 102 106 43 47 60 59 60 53 76 82 84 75 65 44 33 22 22 21 29 29 28 21 16 12 6 4 359 350 346 345 345 344
175 176 173 175 174 162 169 174 158 137 133 160 138 96 101 333 25 29 77 60 68 69 41 57 35 46 42 29 14 27 27 24 14 10 4 358 356 351 348 342 339 338 339
181 181 176 173 173 171 179 179 173 169 149 140 64 137 114 214 137 8 164 26 27 9 9 4 8 9 28 56 46 29 26 16 5 359 357 353 344 341 336 338 335 333 332
186 181 179 178 178 176 171 180 172 171 146 160 118 73 61 126 166 170 280 243 251 309 230 316 314 323 345 15 23 20 18 5 358 352 346 338 335 332 331 329 327 325 324
189 184 181 177 178 180 181 172 164 180 180 149 151 154 127 61 65 126 212 272 316 277 277 281 285 293 308 7 32 4 8 356 347 338 331 327 326 325 323 322 321 319 317
180 191 187 184 180 177 179 180 179 171 178 166 158 162 160 162 179 157 172 211 236 291 257 280 274 255 244 193 21 24 360 339 330 326 323 320 318 317 316 314 313 312 311
186 190 185 186 183 180 179 171 174 177 180 183 171 179 161 166 143 141 127 135 186 285 308 277 253 211 180 95 77 49 327 324 321 320 316 314 313 312 311 309 309 306 305
194 181 185 186 187 178 175 176 177 177 174 181 179 173 165 171 154 146 148 143 160 256 254 236 256 232 138 125 324 325 301 308 312 309 309 309 309 307 304 304 304 303 302
176 174 184 182 181 181 179 176 179 179 177 182 184 174 164 159 158 160 144 144 151 169 280 225 166 169 168 197 265 309 270 296 309 306 306 306 305 303 304 304 303 301 299
172 169 178 184 182 183 182 182 178 179 178 181 177 174 162 156 161 157 158 152 146 130 202 228 271 257 338 336 323 317 300 307 303 306 307 306 303 301 301 302 301 300 297
183 179 179 180 184 183 186 188 186 178 184 176 172 172 176 162 166 161 151 153 169 156 183 287 273 359 338 321 305 293 295 296 299 303 307 306 306 304 305 306 303 299 299
188 188 185 182 183 188 185 188 187 183 184 181 177 171 175 166 167 166 170 178 178 179 156 194 232 234 231 249 254 257 263 253 261 270 286 292 298 303 305 304 300 301 299
185 189 187 188 187 188 189 192 188 185 188 184 178 177 171 167 173 172 172 179 179 186 180 183 220 216 245 243 255 252 253 258 261 286 291 293 295 297 297 296 295 295 294
186 190 195 194 193 190 193 190 187 182 184 181 175 174 168 175 175 171 180 182 177 193 191 191 233 242 238 249 252 276 298 289 305 295 290 288 289 294 294 293 293 293 291
197 190 187 194 187 193 192 187 188 181 177 171 172 172 174 175 178 177 173 182 176 182 181 193 233 241 272 299 300 307 307 311 310 293 304 302 303 294 284 286 286 285 283
198 185 191 189 187 195 197 193 184 178 177 174 174 175 170 163 184 188 191 192 181 174 184 178 222 251 279 292 303 304 311 327 330 293 318 307 305 296 292 288 287 288 287
192 200 199 196 194 199 198 194 189 180 175 178 174 169 166 175 174 185 195 195 204 208 208 195 194 214 265 274 283 295 300 303 298 310 312 297 301 289 287 286 290 291 292
195 196 202 207 209 190 201 197 189 181 177 175 173 171 172 172 179 178 177 185 190 193 222 232 229 244 242 246 255 293 307 309 293 292 290 286 309 290 292 290 289 289 291
195 202 196 199 206 193 201 194 184 183 176 170 169 171 170 167 180 183 176 185 195 204 222 230 243 255 279 291 305 321 300 314 306 307 283 280 297 300 296 284 276 283 289
232 202 196 199 195 183 198 193 179 175 172 163 163 169 173 170 180 182 180 182 194 196 195 200 233 254 290 303 303 286 273 270 289 313 111 304 304 322 305 301 284 290 291